Regional Weather Roundup
Issued by NWS Little Rock, AR

Home | Current Version | Previous Version | Text Only | Print | Product List | Glossary Off
Versions: 1 2 3 4 5 6 7 8 9 10 11 12 13 14 15 16 17 18 19 20 21 22 23 24 25 26 27 28 29 30 31 32

000
ASUS44 KLZK 222205
RWRLZK

WEATHER ROUNDUP FOR ARKANSAS
NATIONAL WEATHER SERVICE LITTLE ROCK AR
500 PM CDT TUE AUG 22 2017

NOTE: "FAIR" INDICATES FEW OR NO CLOUDS BELOW 12,000 FEET WITH NO
SIGNIFICANT WEATHER AND/OR OBSTRUCTIONS TO VISIBILITY.

ARZ001-003-010-029-222300-
NORTHWEST ARKANSAS

CITY           SKY/WX    TMP DP  RH WIND       PRES   REMARKS
FAYETTEVILLE   CLOUDY    84  73  69 NW7       30.04S HX  90
FORT SMITH     SUNNY     90  72  55 VRB3      29.98F HX  97
HARRISON       CLOUDY    85  68  56 NW9       30.05S HX  88
BENTONVILLE    MOSUNNY   84  70  61 N3        30.06S HX  88
ROGERS         PTSUNNY   83  72  69 NW6       30.06S HX  88
HIGHFILL       CLOUDY    86  72  62 VRB5      30.05S HX  92
SPRINGDALE     MOSUNNY   86  72  62 W6        30.06F HX  92
$$

ARZ004-005-016-222300-
NORTH CENTRAL ARKANSAS

CITY           SKY/WX    TMP DP  RH WIND       PRES   REMARKS
FLIPPIN        SUNNY     84  64  51 N6        30.01S HX  86
MTN HOME       SUNNY     83  70  64 MISG      30.03F HX  87
$$

ARZ040-041-222300-
WEST CENTRAL ARKANSAS

CITY           SKY/WX    TMP DP  RH WIND       PRES   REMARKS
MENA           MOSUNNY   88  79  74 CALM      30.03F HX 102
MOUNT IDA      CLOUDY    83  75  77 CALM      30.00F HX  90
$$

ARZ009-017-025-026-028-222300-
NORTHEAST ARKANSAS

CITY           SKY/WX    TMP DP  RH WIND       PRES   REMARKS
CORNING        FAIR      86  75  70 NW12      29.98S HX  95
JONESBORO      MOSUNNY   86  73  65 NW13G22   29.96S HX  93
NEWPORT        SUNNY     88  70  55 N14       29.97S HX  93
WALNUT RIDGE   SUNNY     86  68  54 CALM      29.98S HX  89
BLYTHEVILLE    MOSUNNY   88  72  58 N15       29.96R HX  94
NW BLYTHEVILLE PTSUNNY   88  68  51 NW13G21   29.95R HX  91
$$

ARZ022-023-033-042-044-222300-
CENTRAL ARKANSAS

CITY           SKY/WX    TMP DP  RH WIND       PRES   REMARKS
LITTLE ROCK    PTSUNNY   87  74  64 SW10      29.98R HX  95
N LITTLE ROCK    N/A     88  76  67 W6        29.98R HX  98
JACKSONVILLE   SUNNY     93  74  53 W7        29.97R HX 103
CONWAY           N/A     91  73  55 NW8       29.97R HX 100
SEARCY         SUNNY     92  70  48 N9        29.98S HX  97
HOT SPRINGS    CLOUDY    83  71  67 S3        30.01F HX  87
RUSSELLVILLE   SUNNY     90  70  51 S5        29.98S HX  95
CLINTON        FAIR      90  68  48 CALM      30.00S HX  93
$$

ARZ036-222300-
EAST ARKANSAS

CITY           SKY/WX    TMP DP  RH WIND       PRES   REMARKS
WEST MEMPHIS   MOSUNNY   90  76  63 VRB7      29.93S HX 101
$$

ARZ050-053-066-070-073-222300-
SOUTHWEST ARKANSAS

CITY           SKY/WX    TMP DP  RH WIND       PRES   REMARKS
ARKADELPHIA    FAIR      80  77  90 CALM      29.98F HX  87
CAMDEN         SUNNY     97  72  44 VRB5      29.97F HX 105
TEXARKANA      SUNNY     91  74  57 S5        30.00F HX 100
EL DORADO      MOSUNNY   92  70  48 CALM      30.00F HX  97
DE QUEEN       PTSUNNY   86  76  71 E14       29.97F HX  96
$$

ARZ056-057-069-222300-
SOUTHEAST ARKANSAS

CITY           SKY/WX    TMP DP  RH WIND       PRES   REMARKS
PINE BLUFF     SUNNY     93  74  53 SW12      29.96F HX 103
MONTICELLO     SUNNY     92  72  51 SW6       29.98F HX  99

$$






USA.gov is the U.S. government's official web portal to all federal, state and local government web resources and services.